Location: Dallas
(32.7833°N, 96.8000°W)
Time: 17:53:44
(UTC-05:00)

N. Korean satellite - Pass Details

Date: 15 January 2018
Orbit: 455 x 509 km, 97.2° (Epoch: 18 September)

Event Time Altitude Azimuth Distance (km) Brightness Sun altitude
Rises 18:23:34 0° 166° (SSE) 2,588 10.3 -8.5°
Reaches altitude 10° 18:25:39 10° 165° (SSE) 1,699 9.4 -9.0°
Maximum altitude 18:29:18 82° 80° (E) 503 6.5 -9.7°
Drops below altitude 10° 18:32:55 10° 351° (N) 1,676 9.2 -10.4°
Sets 18:34:58 0° 350° (N) 2,550 10.1 -10.8°
